Time,TemperatureF,DewpointF,PressureIn,WindDirection,WindDirectionDegrees,WindSpeedMPH,WindSpeedGustMPH,Humidity,HourlyPrecipIn,Conditions,Clouds,dailyrainin,SolarRadiationWatts/m^2,SoftwareType,DateUTC
2013-02-04 00:00:00,18.5,13.9,30.15,SSW,198,0.0,2.0,82,0.00,,SKC,0.00,0.00,VWS V14.01,2013-02-04 07:00:00,
2013-02-04 00:03:00,18.5,13.9,30.14,SSW,198,0.0,0.0,82,0.00,,SKC,0.00,0.00,VWS V14.01,2013-02-04 07:03:00,
2013-02-04 00:09:00,18.4,13.8,30.13,SSW,198,1.0,2.0,82,0.00,,SKC,0.00,0.00,VWS V14.01,2013-02-04 07:09:00,
2013-02-04 00:15:00,18.4,13.8,30.13,SSW,198,0.0,2.0,82,0.00,,SKC,0.00,0.00,VWS V14.01,2013-02-04 07:15:00,
2013-02-04 00:22:00,18.1,13.5,30.13,SSW,198,0.0,1.0,82,0.00,,SKC,0.00,0.00,VWS V14.01,2013-02-04 07:22:00,
2013-02-04 00:28:00,17.9,13.4,30.13,SSW,198,0.0,1.0,82,0.00,,SKC,0.00,0.00,VWS V14.01,2013-02-04 07:28:00,
2013-02-04 00:30:00,17.7,12.9,30.13,SSW,198,0.0,1.0,81,0.00,,SKC,0.00,0.00,VWS V14.01,2013-02-04 07:30:00,
2013-02-04 00:34:00,17.6,13.1,30.13,SSW,198,0.0,0.0,82,0.00,,SKC,0.00,0.00,VWS V14.01,2013-02-04 07:34:00,
2013-02-04 00:40:00,17.3,12.8,30.15,SSW,198,0.0,0.0,82,0.00,,SKC,0.00,0.00,VWS V14.01,2013-02-04 07:40:00,
2013-02-04 00:45:00,17.1,12.6,30.15,SSW,198,0.0,1.0,82,0.00,,SKC,0.00,0.00,VWS V14.01,2013-02-04 07:45:00,
2013-02-04 00:51:00,16.9,12.6,30.15,SSW,198,0.0,2.0,83,0.00,,SKC,0.00,0.00,VWS V14.01,2013-02-04 07:51:00,
2013-02-04 00:57:00,16.7,12.2,30.14,SSW,198,0.0,2.0,82,0.00,,SKC,0.00,0.00,VWS V14.01,2013-02-04 07:57:00,
2013-02-04 01:00:00,16.6,12.1,30.14,SSW,198,0.0,2.0,82,0.00,,SKC,0.00,0.00,VWS V14.01,2013-02-04 08:00:00,
2013-02-04 01:03:00,16.4,11.9,30.13,SSW,198,0.0,0.0,82,0.00,,SKC,0.00,0.00,VWS V14.01,2013-02-04 08:03:00,
2013-02-04 01:09:00,16.2,12.0,30.13,SSW,198,0.0,2.0,83,0.00,,SKC,0.00,0.00,VWS V14.01,2013-02-04 08:09:00,
2013-02-04 01:15:00,16.1,11.9,30.13,SSW,198,0.0,2.0,83,0.00,,SKC,0.00,0.00,VWS V14.01,2013-02-04 08:15:00,
2013-02-04 01:21:00,16.1,12.1,30.13,SSW,198,1.0,3.0,84,0.00,,SKC,0.00,0.00,VWS V14.01,2013-02-04 08:21:00,
2013-02-04 01:28:00,16.5,12.8,30.13,SSW,198,2.0,3.0,85,0.00,,SKC,0.00,0.00,VWS V14.01,2013-02-04 08:28:00,
2013-02-04 01:30:00,16.6,12.9,30.13,SSW,198,2.0,3.0,85,0.00,,SKC,0.00,0.00,VWS V14.01,2013-02-04 08:30:00,
2013-02-04 01:34:00,16.8,13.1,30.13,SSW,198,1.0,3.0,85,0.00,,SKC,0.00,0.00,VWS V14.01,2013-02-04 08:34:00,
2013-02-04 01:40:00,17.0,13.0,30.13,SSW,198,0.0,3.0,84,0.00,,SKC,0.00,0.00,VWS V14.01,2013-02-04 08:40:00,
2013-02-04 01:45:00,17.1,13.1,30.13,SSW,198,0.0,3.0,84,0.00,,SKC,0.00,0.00,VWS V14.01,2013-02-04 08:45:00,
2013-02-04 01:50:00,17.1,13.1,30.14,SSW,198,3.0,3.0,84,0.00,,SKC,0.00,0.00,VWS V14.01,2013-02-04 08:50:00,
2013-02-04 01:57:00,17.2,12.9,30.14,SSW,198,0.0,3.0,83,0.00,,SKC,0.00,0.00,VWS V14.01,2013-02-04 08:57:00,
2013-02-04 02:00:00,17.2,12.9,30.14,SSW,198,0.0,3.0,83,0.00,,SKC,0.00,0.00,VWS V14.01,2013-02-04 09:00:00,
2013-02-04 02:03:00,17.1,12.8,30.13,SSW,198,0.0,0.0,83,0.00,,SKC,0.00,0.00,VWS V14.01,2013-02-04 09:03:00,
2013-02-04 02:09:00,17.1,12.8,30.13,SSW,198,0.0,0.0,83,0.00,,SKC,0.00,0.00,VWS V14.01,2013-02-04 09:09:00,
2013-02-04 02:15:00,16.9,12.4,30.13,SSW,198,0.0,2.0,82,0.00,,SKC,0.00,0.00,VWS V14.01,2013-02-04 09:15:00,
2013-02-04 02:21:00,16.6,12.1,30.13,SSW,198,0.0,1.0,82,0.00,,SKC,0.00,0.00,VWS V14.01,2013-02-04 09:21:00,
2013-02-04 02:27:00,16.3,11.8,30.14,SSW,198,0.0,1.0,82,0.00,,SKC,0.00,0.00,VWS V14.01,2013-02-04 09:27:00,
2013-02-04 02:30:00,16.2,11.7,30.14,SSW,198,0.0,1.0,82,0.00,,SKC,0.00,0.00,VWS V14.01,2013-02-04 09:30:00,
2013-02-04 02:33:00,16.1,11.6,30.14,SSW,198,0.0,1.0,82,0.00,,SKC,0.00,0.00,VWS V14.01,2013-02-04 09:33:00,
2013-02-04 02:39:00,15.9,11.4,30.14,SSW,198,0.0,1.0,82,0.00,,SKC,0.00,0.00,VWS V14.01,2013-02-04 09:39:00,
2013-02-04 02:45:00,15.7,11.2,30.15,SSW,198,0.0,1.0,82,0.00,,SKC,0.00,0.00,VWS V14.01,2013-02-04 09:45:00,
2013-02-04 02:51:00,15.6,11.4,30.15,SSW,198,0.0,2.0,83,0.00,,SKC,0.00,0.00,VWS V14.01,2013-02-04 09:51:00,
2013-02-04 02:57:00,15.6,11.4,30.14,SSW,198,0.0,3.0,83,0.00,,SKC,0.00,0.00,VWS V14.01,2013-02-04 09:57:00,
2013-02-04 03:00:00,15.6,11.4,30.14,SSW,198,1.0,3.0,83,0.00,,SKC,0.00,0.00,VWS V14.01,2013-02-04 10:00:00,
2013-02-04 03:04:00,15.6,11.4,30.14,SSW,198,2.0,2.0,83,0.00,,SKC,0.00,0.00,VWS V14.01,2013-02-04 10:04:00,
2013-02-04 03:10:00,15.6,11.4,30.14,SSW,198,2.0,3.0,83,0.00,,SKC,0.00,0.00,VWS V14.01,2013-02-04 10:10:00,
2013-02-04 03:15:00,15.7,11.7,30.13,SSW,198,1.0,3.0,84,0.00,,SKC,0.00,0.00,VWS V14.01,2013-02-04 10:15:00,
2013-02-04 03:21:00,15.9,11.9,30.13,SSW,198,0.0,3.0,84,0.00,,SKC,0.00,0.00,VWS V14.01,2013-02-04 10:21:00,
2013-02-04 03:27:00,16.0,11.8,30.13,SSW,198,2.0,3.0,83,0.00,,SKC,0.00,0.00,VWS V14.01,2013-02-04 10:27:00,
2013-02-04 03:30:00,16.2,11.9,30.13,SSW,198,0.0,3.0,83,0.00,,SKC,0.00,0.00,VWS V14.01,2013-02-04 10:30:00,
2013-02-04 03:33:00,16.2,12.0,30.13,SSW,198,1.0,1.0,83,0.00,,SKC,0.00,0.00,VWS V14.01,2013-02-04 10:33:00,
2013-02-04 03:39:00,16.2,12.0,30.13,SSW,198,0.0,1.0,83,0.00,,SKC,0.00,0.00,VWS V14.01,2013-02-04 10:39:00,
2013-02-04 03:45:00,15.9,11.4,30.13,SSW,198,0.0,1.0,82,0.00,,SKC,0.00,0.00,VWS V14.01,2013-02-04 10:45:00,
2013-02-04 03:51:00,15.7,11.2,30.13,SSW,198,0.0,0.0,82,0.00,,SKC,0.00,0.00,VWS V14.01,2013-02-04 10:51:00,
2013-02-04 03:57:00,15.5,10.7,30.13,SSW,198,0.0,1.0,81,0.00,,SKC,0.00,0.00,VWS V14.01,2013-02-04 10:57:00,
2013-02-04 04:00:00,15.3,10.5,30.15,SSW,198,0.0,1.0,81,0.00,,SKC,0.00,0.00,VWS V14.01,2013-02-04 11:00:00,
2013-02-04 04:03:00,15.1,10.1,30.15,SSW,198,0.0,0.0,80,0.00,,SKC,0.00,0.00,VWS V14.01,2013-02-04 11:03:00,
2013-02-04 04:09:00,14.7,9.9,30.16,SSW,198,0.0,0.0,81,0.00,,SKC,0.00,0.00,VWS V14.01,2013-02-04 11:09:00,
2013-02-04 04:15:00,14.4,9.6,30.15,SSW,198,0.0,0.0,81,0.00,,SKC,0.00,0.00,VWS V14.01,2013-02-04 11:15:00,
2013-02-04 04:21:00,14.2,9.4,30.17,SSW,198,0.0,0.0,81,0.00,,SKC,0.00,0.00,VWS V14.01,2013-02-04 11:21:00,
2013-02-04 04:27:00,13.9,9.2,30.17,SSW,198,0.0,0.0,81,0.00,,SKC,0.00,0.00,VWS V14.01,2013-02-04 11:27:00,
2013-02-04 04:30:00,13.7,9.0,30.17,SSW,198,0.0,0.0,81,0.00,,SKC,0.00,0.00,VWS V14.01,2013-02-04 11:30:00,
2013-02-04 04:33:00,13.6,8.9,30.17,SSW,198,0.0,0.0,81,0.00,,SKC,0.00,0.00,VWS V14.01,2013-02-04 11:33:00,
2013-02-04 04:39:00,13.2,8.5,30.17,SSW,198,0.0,0.0,81,0.00,,SKC,0.00,0.00,VWS V14.01,2013-02-04 11:39:00,
2013-02-04 04:45:00,13.0,8.6,30.17,SSW,198,0.0,0.0,82,0.00,,SKC,0.00,0.00,VWS V14.01,2013-02-04 11:45:00,
2013-02-04 04:52:00,12.6,8.2,30.18,SSW,198,0.0,1.0,82,0.00,,SKC,0.00,0.00,VWS V14.01,2013-02-04 11:52:00,
2013-02-04 04:58:00,12.2,7.8,30.19,SSW,198,0.0,1.0,82,0.00,,SKC,0.00,0.00,VWS V14.01,2013-02-04 11:58:00,
2013-02-04 05:00:00,12.1,7.7,30.19,SSW,198,0.0,1.0,82,0.00,,SKC,0.00,0.00,VWS V14.01,2013-02-04 12:00:00,
2013-02-04 05:04:00,12.0,7.8,30.22,SSW,198,0.0,0.0,83,0.00,,SKC,0.00,0.00,VWS V14.01,2013-02-04 12:04:00,
2013-02-04 05:10:00,11.8,7.6,30.22,SSW,198,0.0,0.0,83,0.00,,SKC,0.00,0.00,VWS V14.01,2013-02-04 12:10:00,
2013-02-04 05:15:00,11.6,7.7,30.22,SSW,198,0.0,0.0,84,0.00,,SKC,0.00,0.00,VWS V14.01,2013-02-04 12:15:00,
2013-02-04 05:21:00,11.5,7.6,30.22,SSW,198,0.0,0.0,84,0.00,,SKC,0.00,0.00,VWS V14.01,2013-02-04 12:21:00,
2013-02-04 05:27:00,11.2,7.3,30.22,SSW,198,0.0,0.0,84,0.00,,SKC,0.00,0.00,VWS V14.01,2013-02-04 12:27:00,
2013-02-04 05:30:00,11.1,7.2,30.22,SSW,198,0.0,0.0,84,0.00,,SKC,0.00,0.00,VWS V14.01,2013-02-04 12:30:00,
2013-02-04 05:33:00,11.0,7.1,30.22,SSW,198,0.0,0.0,84,0.00,,SKC,0.00,0.00,VWS V14.01,2013-02-04 12:33:00,
2013-02-04 05:39:00,10.8,6.9,30.22,SSW,198,0.0,0.0,84,0.00,,SKC,0.00,0.00,VWS V14.01,2013-02-04 12:39:00,
2013-02-04 05:45:00,10.5,6.6,30.22,SSW,198,0.0,0.0,84,0.00,,SKC,0.00,0.00,VWS V14.01,2013-02-04 12:45:00,
2013-02-04 05:51:00,10.2,6.6,30.23,SSW,198,0.0,0.0,85,0.00,,SKC,0.00,0.00,VWS V14.01,2013-02-04 12:51:00,
2013-02-04 05:57:00,10.1,6.5,30.23,SSW,198,0.0,0.0,85,0.00,,SKC,0.00,0.00,VWS V14.01,2013-02-04 12:57:00,
2013-02-04 06:00:00,10.0,6.4,30.24,SSW,198,0.0,0.0,85,0.00,,SKC,0.00,0.00,VWS V14.01,2013-02-04 13:00:00,
2013-02-04 06:03:00,9.9,6.3,30.26,SSW,198,0.0,1.0,85,0.00,,SKC,0.00,0.00,VWS V14.01,2013-02-04 13:03:00,
2013-02-04 06:09:00,9.9,6.3,30.27,SSW,198,0.0,1.0,85,0.00,,SKC,0.00,0.00,VWS V14.01,2013-02-04 13:09:00,
2013-02-04 06:15:00,9.9,6.3,30.27,SSW,198,0.0,1.0,85,0.00,,SKC,0.00,0.00,VWS V14.01,2013-02-04 13:15:00,
2013-02-04 06:21:00,9.6,6.0,30.27,SSW,198,0.0,0.0,85,0.00,,SKC,0.00,0.00,VWS V14.01,2013-02-04 13:21:00,
2013-02-04 06:27:00,9.5,6.2,30.27,SSW,198,0.0,0.0,86,0.00,,SKC,0.00,0.00,VWS V14.01,2013-02-04 13:27:00,
2013-02-04 06:30:00,9.5,6.2,30.27,SSW,198,0.0,0.0,86,0.00,,SKC,0.00,0.00,VWS V14.01,2013-02-04 13:30:00,
2013-02-04 06:33:00,9.4,6.1,30.29,SSW,198,0.0,0.0,86,0.00,,SKC,0.00,0.00,VWS V14.01,2013-02-04 13:33:00,
2013-02-04 06:39:00,9.3,6.0,30.29,SSW,198,0.0,0.0,86,0.00,,SKC,0.00,0.00,VWS V14.01,2013-02-04 13:39:00,
2013-02-04 06:45:00,9.1,5.5,30.29,SSW,198,0.0,1.0,85,0.00,,SKC,0.00,0.00,VWS V14.01,2013-02-04 13:45:00,
2013-02-04 06:51:00,8.8,5.2,30.29,SSW,198,0.0,1.0,85,0.00,,SKC,0.00,0.00,VWS V14.01,2013-02-04 13:51:00,
2013-02-04 06:58:00,8.6,5.0,30.29,SSW,198,0.0,1.0,85,0.00,,SKC,0.00,0.00,VWS V14.01,2013-02-04 13:58:00,
2013-02-04 07:00:00,8.6,5.0,30.28,SSW,198,0.0,1.0,85,0.00,,SKC,0.00,0.00,VWS V14.01,2013-02-04 14:00:00,
2013-02-04 07:04:00,8.5,5.2,30.30,SSW,198,1.0,1.0,86,0.00,,SKC,0.00,0.00,VWS V14.01,2013-02-04 14:04:00,
2013-02-04 07:10:00,8.5,5.2,30.30,SSW,198,0.0,1.0,86,0.00,,SKC,0.00,0.00,VWS V14.01,2013-02-04 14:10:00,
2013-02-04 07:15:00,8.5,5.2,30.31,SSW,198,0.0,1.0,86,0.00,,SKC,0.00,0.00,VWS V14.01,2013-02-04 14:15:00,
2013-02-04 07:22:00,8.3,5.0,30.32,SSW,198,0.0,0.0,86,0.00,,SKC,0.00,5.00,VWS V14.01,2013-02-04 14:22:00,
2013-02-04 07:28:00,8.3,5.0,30.33,SSW,198,0.0,0.0,86,0.00,,SKC,0.00,7.00,VWS V14.01,2013-02-04 14:28:00,
2013-02-04 07:30:00,8.3,5.0,30.33,SSW,198,0.0,0.0,86,0.00,,SKC,0.00,7.00,VWS V14.01,2013-02-04 14:30:00,
2013-02-04 07:34:00,8.3,5.0,30.33,SSW,198,0.0,0.0,86,0.00,,SKC,0.00,7.00,VWS V14.01,2013-02-04 14:34:00,
2013-02-04 07:40:00,8.2,4.9,30.33,SSW,198,0.0,0.0,86,0.00,,SKC,0.00,9.00,VWS V14.01,2013-02-04 14:40:00,
2013-02-04 07:45:00,8.2,4.9,30.33,SSW,198,0.0,1.0,86,0.00,,SKC,0.00,9.00,VWS V14.01,2013-02-04 14:45:00,
2013-02-04 07:50:00,8.1,4.8,30.33,SSW,198,0.0,0.0,86,0.00,,SKC,0.00,11.00,VWS V14.01,2013-02-04 14:50:00,
2013-02-04 07:56:00,8.1,4.8,30.33,SSW,198,1.0,2.0,86,0.00,,SKC,0.00,11.00,VWS V14.01,2013-02-04 14:56:00,
2013-02-04 08:00:00,8.3,5.2,30.33,SSW,198,0.0,2.0,87,0.00,,SKC,0.00,11.00,VWS V14.01,2013-02-04 15:00:00,
2013-02-04 08:02:00,8.5,5.4,30.34,SSW,198,0.0,0.0,87,0.00,,SKC,0.00,12.00,VWS V14.01,2013-02-04 15:02:00,
2013-02-04 08:09:00,8.6,5.5,30.33,SSW,198,0.0,0.0,87,0.00,,SKC,0.00,12.00,VWS V14.01,2013-02-04 15:09:00,
2013-02-04 08:15:00,8.8,5.7,30.33,SSW,198,0.0,0.0,87,0.00,,SKC,0.00,12.00,VWS V14.01,2013-02-04 15:15:00,
2013-02-04 08:21:00,8.9,5.8,30.34,SSW,198,0.0,1.0,87,0.00,,SKC,0.00,14.00,VWS V14.01,2013-02-04 15:21:00,
2013-02-04 08:27:00,9.0,5.9,30.34,SSW,198,0.0,1.0,87,0.00,,SKC,0.00,14.00,VWS V14.01,2013-02-04 15:27:00,
2013-02-04 08:30:00,9.0,5.9,30.34,SSW,198,0.0,1.0,87,0.00,,SKC,0.00,14.00,VWS V14.01,2013-02-04 15:30:00,
2013-02-04 08:33:00,9.0,5.9,30.34,SSW,198,0.0,1.0,87,0.00,,SKC,0.00,14.00,VWS V14.01,2013-02-04 15:33:00,
2013-02-04 08:39:00,9.2,6.4,30.33,SSW,198,0.0,1.0,88,0.00,,SKC,0.00,16.00,VWS V14.01,2013-02-04 15:39:00,
2013-02-04 08:45:00,9.4,6.6,30.33,SSW,198,0.0,1.0,88,0.00,,SKC,0.00,16.00,VWS V14.01,2013-02-04 15:45:00,
2013-02-04 08:51:00,9.5,6.7,30.33,SSW,198,0.0,0.0,88,0.00,,SKC,0.00,18.00,VWS V14.01,2013-02-04 15:51:00,
2013-02-04 08:57:00,9.7,6.9,30.33,SSW,198,0.0,0.0,88,0.00,,SKC,0.00,19.00,VWS V14.01,2013-02-04 15:57:00,
2013-02-04 09:00:00,9.8,7.0,30.33,SSW,198,0.0,0.0,88,0.00,,SKC,0.00,19.00,VWS V14.01,2013-02-04 16:00:00,
2013-02-04 09:03:00,9.9,7.1,30.33,SSW,198,0.0,0.0,88,0.00,,SKC,0.00,21.00,VWS V14.01,2013-02-04 16:03:00,
2013-02-04 09:09:00,9.9,7.1,30.33,SSW,198,0.0,0.0,88,0.00,,SKC,0.00,23.00,VWS V14.01,2013-02-04 16:09:00,
2013-02-04 09:15:00,10.0,7.2,30.33,SSW,198,0.0,0.0,88,0.00,,SKC,0.00,23.00,VWS V14.01,2013-02-04 16:15:00,
2013-02-04 09:21:00,10.5,7.7,30.33,SSW,198,0.0,0.0,88,0.00,,SKC,0.00,341.00,VWS V14.01,2013-02-04 16:21:00,
2013-02-04 09:27:00,12.6,10.0,30.31,SSW,198,0.0,0.0,89,0.00,,SKC,0.00,362.00,VWS V14.01,2013-02-04 16:27:00,
2013-02-04 09:30:00,13.8,11.4,30.31,SSW,198,0.0,0.0,90,0.00,,SKC,0.00,373.00,VWS V14.01,2013-02-04 16:30:00,
2013-02-04 09:33:00,14.7,12.3,30.30,SSW,198,0.0,0.0,90,0.00,,SKC,0.00,380.00,VWS V14.01,2013-02-04 16:33:00,
2013-02-04 09:39:00,16.3,13.6,30.28,SSW,198,0.0,2.0,89,0.00,,SKC,0.00,413.00,VWS V14.01,2013-02-04 16:39:00,
2013-02-04 09:45:00,18.3,15.1,30.26,SSW,198,2.0,2.0,87,0.00,,SKC,0.00,399.00,VWS V14.01,2013-02-04 16:45:00,
2013-02-04 09:52:00,20.2,15.6,30.24,SSW,198,0.0,3.0,82,0.00,,SKC,0.00,425.00,VWS V14.01,2013-02-04 16:52:00,
2013-02-04 09:58:00,21.8,16.0,30.23,SSW,198,1.0,3.0,78,0.00,,SKC,0.00,429.00,VWS V14.01,2013-02-04 16:58:00,
2013-02-04 10:00:00,22.3,15.0,30.23,SSW,198,3.0,3.0,73,0.00,,SKC,0.00,438.00,VWS V14.01,2013-02-04 17:00:00,
2013-02-04 10:03:00,22.6,15.3,30.24,NE,36,3.0,4.0,73,0.00,,SKC,0.00,446.00,VWS V14.01,2013-02-04 17:03:00,
2013-02-04 10:09:00,23.4,14.8,30.24,NE,37,2.0,5.0,69,0.00,,SKC,0.00,461.00,VWS V14.01,2013-02-04 17:09:00,
2013-02-04 10:14:00,24.2,14.5,30.24,NE,38,0.0,5.0,66,0.00,,SKC,0.00,476.00,VWS V14.01,2013-02-04 17:14:00,
2013-02-04 10:15:00,24.5,14.8,30.24,NE,37,1.0,5.0,66,0.00,,SKC,0.00,480.00,VWS V14.01,2013-02-04 17:15:00,
2013-02-04 10:20:00,25.1,14.3,30.22,NE,38,0.0,2.0,63,0.00,,SKC,0.00,499.00,VWS V14.01,2013-02-04 17:20:00,
2013-02-04 10:26:00,26.0,14.8,30.21,NE,38,1.0,2.0,62,0.00,,SKC,0.00,519.00,VWS V14.01,2013-02-04 17:26:00,
2013-02-04 10:30:00,26.8,15.2,30.19,NNE,32,2.0,4.0,61,0.00,,SKC,0.00,534.00,VWS V14.01,2013-02-04 17:30:00,
2013-02-04 10:32:00,27.0,15.4,30.19,NNE,28,3.0,3.0,61,0.00,,SKC,0.00,533.00,VWS V14.01,2013-02-04 17:32:00,
2013-02-04 10:39:00,27.3,14.9,30.19,ENE,60,5.0,5.0,59,0.00,,SKC,0.00,552.00,VWS V14.01,2013-02-04 17:39:00,
2013-02-04 10:44:00,27.4,15.4,30.19,ENE,61,1.0,5.0,60,0.00,,SKC,0.00,563.00,VWS V14.01,2013-02-04 17:44:00,
2013-02-04 10:45:00,27.6,15.2,30.19,NE,56,2.0,5.0,59,0.00,,SKC,0.00,575.00,VWS V14.01,2013-02-04 17:45:00,
2013-02-04 10:49:00,27.7,15.6,30.19,NE,52,1.0,5.0,60,0.00,,SKC,0.00,596.00,VWS V14.01,2013-02-04 17:49:00,
2013-02-04 10:54:00,28.8,16.7,30.17,NE,44,4.0,6.0,60,0.00,,SKC,0.00,629.00,VWS V14.01,2013-02-04 17:54:00,
2013-02-04 11:00:00,29.7,16.4,30.17,NNE,17,5.0,6.0,57,0.00,,SKC,0.00,480.00,VWS V14.01,2013-02-04 18:00:00,
2013-02-04 11:07:00,29.7,16.8,30.17,NE,49,6.0,9.0,58,0.00,,SKC,0.00,461.00,VWS V14.01,2013-02-04 18:07:00,
2013-02-04 11:13:00,29.6,16.2,30.17,NNE,33,4.0,10.0,57,0.00,,SKC,0.00,469.00,VWS V14.01,2013-02-04 18:13:00,
2013-02-04 11:15:00,29.6,16.6,30.17,NNE,12,11.0,11.0,58,0.00,,SKC,0.00,559.00,VWS V14.01,2013-02-04 18:15:00,
2013-02-04 11:18:00,29.7,17.1,30.16,North,9,2.0,11.0,59,0.00,,SKC,0.00,415.00,VWS V14.01,2013-02-04 18:18:00,
2013-02-04 11:25:00,29.6,16.6,30.17,NNW,348,6.0,11.0,58,0.00,,SKC,0.00,401.00,VWS V14.01,2013-02-04 18:25:00,
2013-02-04 11:30:00,29.7,17.1,30.16,NNE,29,7.0,11.0,59,0.00,,SKC,0.00,485.00,VWS V14.01,2013-02-04 18:30:00,
2013-02-04 11:31:00,29.7,17.1,30.16,NNE,29,7.0,11.0,59,0.00,,SKC,0.00,485.00,VWS V14.01,2013-02-04 18:31:00,
2013-02-04 11:36:00,30.4,17.8,30.16,NE,38,6.0,10.0,59,0.00,,SKC,0.00,640.00,VWS V14.01,2013-02-04 18:36:00,
2013-02-04 11:42:00,31.3,17.9,30.14,NNE,17,4.0,10.0,57,0.00,,SKC,0.00,663.00,VWS V14.01,2013-02-04 18:42:00,
2013-02-04 11:45:00,32.2,18.7,30.14,NNE,17,2.0,10.0,57,0.00,,SKC,0.00,659.00,VWS V14.01,2013-02-04 18:45:00,
2013-02-04 11:47:00,32.5,18.1,30.13,NNE,18,7.0,7.0,55,0.00,,SKC,0.00,642.00,VWS V14.01,2013-02-04 18:47:00,
2013-02-04 11:53:00,33.1,17.8,30.11,North,355,3.0,7.0,53,0.00,,SKC,0.00,410.00,VWS V14.01,2013-02-04 18:53:00,
2013-02-04 11:59:00,33.3,17.1,30.11,NE,38,3.0,7.0,51,0.00,,SKC,0.00,448.00,VWS V14.01,2013-02-04 18:59:00,
2013-02-04 12:00:00,33.3,17.6,30.12,NE,35,4.0,7.0,52,0.00,,SKC,0.00,366.00,VWS V14.01,2013-02-04 19:00:00,
2013-02-04 12:04:00,33.2,17.5,30.12,NNE,33,2.0,6.0,52,0.00,,SKC,0.00,425.00,VWS V14.01,2013-02-04 19:04:00,
2013-02-04 12:10:00,33.1,17.4,30.12,NE,46,4.0,6.0,52,0.00,,SKC,0.00,531.00,VWS V14.01,2013-02-04 19:10:00,
2013-02-04 12:15:00,33.4,18.1,30.12,NNE,22,5.0,6.0,53,0.00,,SKC,0.00,656.00,VWS V14.01,2013-02-04 19:15:00,
2013-02-04 12:21:00,34.4,18.2,30.12,NNE,17,3.0,6.0,51,0.00,,SKC,0.00,643.00,VWS V14.01,2013-02-04 19:21:00,
2013-02-04 12:27:00,35.2,18.0,30.10,NE,56,4.0,6.0,49,0.00,,SKC,0.00,652.00,VWS V14.01,2013-02-04 19:27:00,
2013-02-04 12:30:00,35.5,18.2,30.10,NNW,336,3.0,7.0,49,0.00,,SKC,0.00,649.00,VWS V14.01,2013-02-04 19:30:00,
2013-02-04 12:33:00,35.8,18.0,30.10,NNW,345,7.0,7.0,48,0.00,,SKC,0.00,650.00,VWS V14.01,2013-02-04 19:33:00,
2013-02-04 12:40:00,36.3,19.0,30.10,NNE,18,2.0,7.0,49,0.00,,SKC,0.00,657.00,VWS V14.01,2013-02-04 19:40:00,
2013-02-04 12:45:00,36.3,18.5,30.09,NNE,20,6.0,9.0,48,0.00,,SKC,0.00,510.00,VWS V14.01,2013-02-04 19:45:00,
2013-02-04 12:51:00,36.7,19.4,30.08,NNE,32,6.0,7.0,49,0.00,,SKC,0.00,645.00,VWS V14.01,2013-02-04 19:51:00,
2013-02-04 12:58:00,37.3,19.4,30.07,North,360,6.0,7.0,48,0.00,,SKC,0.00,640.00,VWS V14.01,2013-02-04 19:58:00,
2013-02-04 13:00:00,37.6,19.7,30.07,NNE,24,4.0,7.0,48,0.00,,SKC,0.00,619.00,VWS V14.01,2013-02-04 20:00:00,
2013-02-04 13:04:00,38.1,20.2,30.07,NNE,32,3.0,8.0,48,0.00,,SKC,0.00,622.00,VWS V14.01,2013-02-04 20:04:00,
2013-02-04 13:10:00,38.2,20.7,30.07,NNE,19,4.0,8.0,49,0.00,,SKC,0.00,619.00,VWS V14.01,2013-02-04 20:10:00,
2013-02-04 13:15:00,38.5,21.0,30.06,NE,44,3.0,8.0,49,0.00,,SKC,0.00,610.00,VWS V14.01,2013-02-04 20:15:00,
2013-02-04 13:16:00,38.4,20.9,30.06,NE,44,4.0,8.0,49,0.00,,SKC,0.00,612.00,VWS V14.01,2013-02-04 20:16:00,
2013-02-04 13:22:00,39.1,21.1,30.04,NE,35,5.0,5.0,48,0.00,,SKC,0.00,606.00,VWS V14.01,2013-02-04 20:22:00,
2013-02-04 13:28:00,39.3,21.3,30.03,NE,42,3.0,7.0,48,0.00,,SKC,0.00,599.00,VWS V14.01,2013-02-04 20:28:00,
2013-02-04 13:30:00,39.3,21.3,30.03,North,11,3.0,7.0,48,0.00,,SKC,0.00,598.00,VWS V14.01,2013-02-04 20:30:00,
2013-02-04 13:35:00,39.5,21.5,30.03,NE,34,2.0,4.0,48,0.00,,SKC,0.00,594.00,VWS V14.01,2013-02-04 20:35:00,
2013-02-04 13:41:00,39.8,21.7,30.02,North,360,5.0,6.0,48,0.00,,SKC,0.00,587.00,VWS V14.01,2013-02-04 20:41:00,
2013-02-04 13:45:00,40.1,21.5,30.02,North,360,4.0,6.0,47,0.00,,SKC,0.00,584.00,VWS V14.01,2013-02-04 20:45:00,
2013-02-04 13:47:00,40.1,21.5,30.02,North,5,5.0,5.0,47,0.00,,SKC,0.00,585.00,VWS V14.01,2013-02-04 20:47:00,
2013-02-04 13:53:00,39.7,20.1,30.01,NE,38,3.0,5.0,45,0.00,,SKC,0.00,503.00,VWS V14.01,2013-02-04 20:53:00,
2013-02-04 13:59:00,40.3,21.7,30.01,NNE,15,7.0,9.0,47,0.00,,SKC,0.00,568.00,VWS V14.01,2013-02-04 20:59:00,
2013-02-04 14:00:00,40.4,21.3,30.01,NNE,21,3.0,9.0,46,0.00,,SKC,0.00,561.00,VWS V14.01,2013-02-04 21:00:00,
2013-02-04 14:04:00,40.4,21.8,30.01,NNE,25,6.0,9.0,47,0.00,,SKC,0.00,554.00,VWS V14.01,2013-02-04 21:04:00,
2013-02-04 14:10:00,39.9,21.8,30.01,NNE,17,3.0,9.0,48,0.00,,SKC,0.00,545.00,VWS V14.01,2013-02-04 21:10:00,
2013-02-04 14:15:00,39.4,21.4,30.02,NE,37,7.0,11.0,48,0.00,,SKC,0.00,540.00,VWS V14.01,2013-02-04 21:15:00,
2013-02-04 14:16:00,39.4,21.4,30.02,NE,37,7.0,11.0,48,0.00,,SKC,0.00,540.00,VWS V14.01,2013-02-04 21:16:00,
2013-02-04 14:23:00,39.4,21.8,30.03,NNE,19,3.0,7.0,49,0.00,,SKC,0.00,533.00,VWS V14.01,2013-02-04 21:23:00,
2013-02-04 14:29:00,39.7,21.6,30.01,NNE,20,10.0,11.0,48,0.00,,SKC,0.00,513.00,VWS V14.01,2013-02-04 21:29:00,
2013-02-04 14:30:00,39.7,21.6,30.01,NNE,33,4.0,11.0,48,0.00,,SKC,0.00,508.00,VWS V14.01,2013-02-04 21:30:00,
2013-02-04 14:35:00,39.5,21.9,30.01,NNE,18,8.0,11.0,49,0.00,,SKC,0.00,499.00,VWS V14.01,2013-02-04 21:35:00,
2013-02-04 14:41:00,39.5,21.5,30.01,NNW,336,7.0,11.0,48,0.00,,SKC,0.00,487.00,VWS V14.01,2013-02-04 21:41:00,
2013-02-04 14:45:00,39.4,21.8,30.03,NNE,18,7.0,11.0,49,0.00,,SKC,0.00,478.00,VWS V14.01,2013-02-04 21:45:00,
2013-02-04 14:46:00,39.4,21.8,30.03,NNE,18,7.0,11.0,49,0.00,,SKC,0.00,478.00,VWS V14.01,2013-02-04 21:46:00,
2013-02-04 14:52:00,39.5,21.0,30.01,NNE,25,6.0,10.0,47,0.00,,SKC,0.00,420.00,VWS V14.01,2013-02-04 21:52:00,
2013-02-04 14:59:00,39.2,20.7,30.03,NNE,19,9.0,10.0,47,0.00,,SKC,0.00,199.00,VWS V14.01,2013-02-04 21:59:00,
2013-02-04 15:00:00,39.0,21.0,30.03,North,10,3.0,10.0,48,0.00,,SKC,0.00,199.00,VWS V14.01,2013-02-04 22:00:00,
2013-02-04 15:06:00,38.7,20.7,30.03,NNE,15,7.0,9.0,48,0.00,,SKC,0.00,334.00,VWS V14.01,2013-02-04 22:06:00,
2013-02-04 15:11:00,38.8,20.3,30.03,NNE,24,3.0,10.0,47,0.00,,SKC,0.00,410.00,VWS V14.01,2013-02-04 22:11:00,
2013-02-04 15:15:00,39.0,21.0,30.03,North,11,5.0,10.0,48,0.00,,SKC,0.00,399.00,VWS V14.01,2013-02-04 22:15:00,
2013-02-04 15:16:00,39.0,21.0,30.03,North,11,5.0,10.0,48,0.00,,SKC,0.00,399.00,VWS V14.01,2013-02-04 22:16:00,
2013-02-04 15:22:00,39.2,20.7,30.03,NNE,21,6.0,10.0,47,0.00,,SKC,0.00,394.00,VWS V14.01,2013-02-04 22:22:00,
2013-02-04 15:28:00,39.4,20.4,30.03,NNE,14,9.0,10.0,46,0.00,,SKC,0.00,362.00,VWS V14.01,2013-02-04 22:28:00,
2013-02-04 15:30:00,39.3,20.3,30.03,NNE,24,1.0,10.0,46,0.00,,SKC,0.00,364.00,VWS V14.01,2013-02-04 22:30:00,
2013-02-04 15:34:00,39.3,20.3,30.03,NNE,25,6.0,12.0,46,0.00,,SKC,0.00,360.00,VWS V14.01,2013-02-04 22:34:00,
2013-02-04 15:41:00,39.5,20.5,30.03,NE,40,6.0,12.0,46,0.00,,SKC,0.00,353.00,VWS V14.01,2013-02-04 22:41:00,
2013-02-04 15:45:00,39.5,20.5,30.03,NNE,28,2.0,12.0,46,0.00,,SKC,0.00,248.00,VWS V14.01,2013-02-04 22:45:00,
2013-02-04 15:46:00,39.5,20.5,30.03,NNE,28,2.0,2.0,46,0.00,,SKC,0.00,248.00,VWS V14.01,2013-02-04 22:46:00,
2013-02-04 15:53:00,39.3,19.8,30.03,NNE,28,0.0,4.0,45,0.00,,SKC,0.00,35.00,VWS V14.01,2013-02-04 22:53:00,
2013-02-04 15:58:00,39.0,19.5,30.04,NNE,28,0.0,4.0,45,0.00,,SKC,0.00,33.00,VWS V14.01,2013-02-04 22:58:00,
2013-02-04 16:00:00,38.9,19.4,30.03,NNE,28,0.0,4.0,45,0.00,,SKC,0.00,33.00,VWS V14.01,2013-02-04 23:00:00,
2013-02-04 16:04:00,38.6,19.6,30.07,NNE,28,2.0,2.0,46,0.00,,SKC,0.00,35.00,VWS V14.01,2013-02-04 23:04:00,
2013-02-04 16:10:00,38.3,20.4,30.07,NNE,28,0.0,2.0,48,0.00,,SKC,0.00,42.00,VWS V14.01,2013-02-04 23:10:00,
2013-02-04 16:15:00,38.0,19.6,30.07,NNE,28,1.0,3.0,47,0.00,,SKC,0.00,47.00,VWS V14.01,2013-02-04 23:15:00,
2013-02-04 16:16:00,38.0,19.6,30.07,NNE,28,1.0,3.0,47,0.00,,SKC,0.00,47.00,VWS V14.01,2013-02-04 23:16:00,
2013-02-04 16:21:00,37.7,20.3,30.08,North,355,2.0,3.0,49,0.00,,SKC,0.00,58.00,VWS V14.01,2013-02-04 23:21:00,
2013-02-04 16:27:00,37.3,19.9,30.09,NNW,342,1.0,5.0,49,0.00,,SKC,0.00,72.00,VWS V14.01,2013-02-04 23:27:00,
2013-02-04 16:30:00,37.2,20.3,30.09,NNW,337,3.0,5.0,50,0.00,,SKC,0.00,67.00,VWS V14.01,2013-02-04 23:30:00,
2013-02-04 16:33:00,37.1,20.7,30.09,NNW,332,3.0,6.0,51,0.00,,SKC,0.00,67.00,VWS V14.01,2013-02-04 23:33:00,
2013-02-04 16:39:00,37.0,21.0,30.09,NNW,329,2.0,6.0,52,0.00,,SKC,0.00,60.00,VWS V14.01,2013-02-04 23:39:00,
2013-02-04 16:45:00,37.0,21.0,30.09,NNW,329,3.0,6.0,52,0.00,,SKC,0.00,44.00,VWS V14.01,2013-02-04 23:45:00,
2013-02-04 16:52:00,36.9,21.4,30.09,NNW,340,2.0,3.0,53,0.00,,SKC,0.00,33.00,VWS V14.01,2013-02-04 23:52:00,
2013-02-04 16:58:00,36.8,21.3,30.09,NNW,340,0.0,4.0,53,0.00,,SKC,0.00,26.00,VWS V14.01,2013-02-04 23:58:00,
2013-02-04 17:00:00,36.6,21.1,30.11,NNW,340,0.0,4.0,53,0.00,,SKC,0.00,19.00,VWS V14.01,2013-02-05 00:00:00,
2013-02-04 17:04:00,36.4,20.9,30.11,NNW,340,0.0,2.0,53,0.00,,SKC,0.00,16.00,VWS V14.01,2013-02-05 00:04:00,
2013-02-04 17:10:00,36.2,20.7,30.11,NNW,340,0.0,2.0,53,0.00,,SKC,0.00,12.00,VWS V14.01,2013-02-05 00:10:00,
2013-02-04 17:15:00,35.9,20.9,30.11,NNW,340,0.0,2.0,54,0.00,,SKC,0.00,11.00,VWS V14.01,2013-02-05 00:15:00,
2013-02-04 17:16:00,35.9,20.9,30.11,NNW,340,0.0,0.0,54,0.00,,SKC,0.00,11.00,VWS V14.01,2013-02-05 00:16:00,
2013-02-04 17:23:00,35.6,21.0,30.11,NNW,340,0.0,0.0,55,0.00,,SKC,0.00,7.00,VWS V14.01,2013-02-05 00:23:00,
2013-02-04 17:30:00,35.1,20.6,30.14,NNW,340,0.0,0.0,55,0.00,,SKC,0.00,5.00,VWS V14.01,2013-02-05 00:30:00,
2013-02-04 17:36:00,34.4,20.3,30.15,NNW,340,0.0,0.0,56,0.00,,SKC,0.00,0.00,VWS V14.01,2013-02-05 00:36:00,
2013-02-04 17:42:00,34.0,20.4,30.15,NNW,340,0.0,0.0,57,0.00,,SKC,0.00,0.00,VWS V14.01,2013-02-05 00:42:00,
2013-02-04 17:45:00,33.6,20.4,30.15,NNW,340,0.0,0.0,58,0.00,,SKC,0.00,0.00,VWS V14.01,2013-02-05 00:45:00,
2013-02-04 17:48:00,33.4,20.2,30.17,NNW,340,0.0,0.0,58,0.00,,SKC,0.00,0.00,VWS V14.01,2013-02-05 00:48:00,
2013-02-04 17:54:00,32.5,20.2,30.17,NNW,340,1.0,1.0,60,0.00,,SKC,0.00,0.00,VWS V14.01,2013-02-05 00:54:00,
2013-02-04 18:00:00,31.9,20.0,30.17,NNW,340,0.0,1.0,61,0.00,,SKC,0.00,0.00,VWS V14.01,2013-02-05 01:00:00,
2013-02-04 18:06:00,31.2,20.5,30.19,NNW,340,2.0,2.0,64,0.00,,SKC,0.00,0.00,VWS V14.01,2013-02-05 01:06:00,
2013-02-04 18:12:00,30.6,20.2,30.19,NNW,340,0.0,2.0,65,0.00,,SKC,0.00,0.00,VWS V14.01,2013-02-05 01:12:00,
2013-02-04 18:15:00,30.3,20.0,30.21,NNW,340,0.0,2.0,65,0.00,,SKC,0.00,0.00,VWS V14.01,2013-02-05 01:15:00,
2013-02-04 18:18:00,30.2,19.9,30.21,NNW,340,0.0,0.0,65,0.00,,SKC,0.00,0.00,VWS V14.01,2013-02-05 01:18:00,
2013-02-04 18:24:00,29.9,19.9,30.21,NNW,340,0.0,0.0,66,0.00,,SKC,0.00,0.00,VWS V14.01,2013-02-05 01:24:00,
2013-02-04 18:30:00,29.5,19.9,30.21,NNW,340,1.0,1.0,67,0.00,,SKC,0.00,0.00,VWS V14.01,2013-02-05 01:30:00,
2013-02-04 18:36:00,29.1,19.5,30.21,NNW,340,0.0,1.0,67,0.00,,SKC,0.00,0.00,VWS V14.01,2013-02-05 01:36:00,
2013-02-04 18:42:00,28.8,19.6,30.21,NNW,340,0.0,1.0,68,0.00,,SKC,0.00,0.00,VWS V14.01,2013-02-05 01:42:00,
2013-02-04 18:45:00,28.7,19.5,30.22,NNW,340,0.0,1.0,68,0.00,,SKC,0.00,0.00,VWS V14.01,2013-02-05 01:45:00,
2013-02-04 18:48:00,28.6,19.4,30.22,NNW,340,0.0,0.0,68,0.00,,SKC,0.00,0.00,VWS V14.01,2013-02-05 01:48:00,
2013-02-04 18:54:00,28.4,19.5,30.23,NNW,340,0.0,0.0,69,0.00,,SKC,0.00,0.00,VWS V14.01,2013-02-05 01:54:00,
2013-02-04 19:00:00,28.2,19.7,30.24,NNW,340,0.0,0.0,70,0.00,,SKC,0.00,0.00,VWS V14.01,2013-02-05 02:00:00,
2013-02-04 19:06:00,28.0,19.5,30.24,NNW,340,0.0,0.0,70,0.00,,SKC,0.00,0.00,VWS V14.01,2013-02-05 02:06:00,
2013-02-04 19:12:00,27.9,19.7,30.24,NNW,340,0.0,1.0,71,0.00,,SKC,0.00,0.00,VWS V14.01,2013-02-05 02:12:00,
2013-02-04 19:15:00,27.8,19.6,30.24,NNW,340,0.0,1.0,71,0.00,,SKC,0.00,0.00,VWS V14.01,2013-02-05 02:15:00,
2013-02-04 19:18:00,27.7,19.5,30.24,NNW,340,0.0,0.0,71,0.00,,SKC,0.00,0.00,VWS V14.01,2013-02-05 02:18:00,
2013-02-04 19:25:00,27.4,19.6,30.24,NNW,340,0.0,1.0,72,0.00,,SKC,0.00,0.00,VWS V14.01,2013-02-05 02:25:00,
2013-02-04 19:30:00,27.2,19.7,30.25,NNW,340,0.0,2.0,73,0.00,,SKC,0.00,0.00,VWS V14.01,2013-02-05 02:30:00,
2013-02-04 19:31:00,27.2,19.7,30.25,NNW,340,0.0,2.0,73,0.00,,SKC,0.00,0.00,VWS V14.01,2013-02-05 02:31:00,
2013-02-04 19:37:00,26.9,19.4,30.25,NNW,340,0.0,1.0,73,0.00,,SKC,0.00,0.00,VWS V14.01,2013-02-05 02:37:00,
2013-02-04 19:43:00,26.8,19.3,30.25,NNW,340,0.0,1.0,73,0.00,,SKC,0.00,0.00,VWS V14.01,2013-02-05 02:43:00,
2013-02-04 19:45:00,26.7,19.2,30.25,WSW,255,3.0,3.0,73,0.00,,SKC,0.00,0.00,VWS V14.01,2013-02-05 02:45:00,
2013-02-04 19:49:00,26.5,19.4,30.24,SSW,199,2.0,4.0,74,0.00,,SKC,0.00,0.00,VWS V14.01,2013-02-05 02:49:00,
2013-02-04 19:55:00,26.7,19.9,30.24,SSE,161,2.0,6.0,75,0.00,,SKC,0.00,0.00,VWS V14.01,2013-02-05 02:55:00,
2013-02-04 20:00:00,26.7,19.5,30.23,SSE,162,3.0,6.0,74,0.00,,SKC,0.00,0.00,VWS V14.01,2013-02-05 03:00:00,
2013-02-04 20:06:00,26.7,19.9,30.22,SSE,162,1.0,7.0,75,0.00,,SKC,0.00,0.00,VWS V14.01,2013-02-05 03:06:00,
2013-02-04 20:13:00,26.7,19.5,30.22,SSE,159,7.0,7.0,74,0.00,,SKC,0.00,0.00,VWS V14.01,2013-02-05 03:13:00,
2013-02-04 20:15:00,26.9,19.7,30.22,SE,146,0.0,7.0,74,0.00,,SKC,0.00,0.00,VWS V14.01,2013-02-05 03:15:00,
2013-02-04 20:19:00,27.0,19.5,30.22,SE,146,2.0,3.0,73,0.00,,SKC,0.00,0.00,VWS V14.01,2013-02-05 03:19:00,
2013-02-04 20:24:00,27.0,19.5,30.23,SE,146,0.0,3.0,73,0.00,,SKC,0.00,0.00,VWS V14.01,2013-02-05 03:24:00,
2013-02-04 20:30:00,27.2,19.7,30.24,NNE,31,0.0,5.0,73,0.00,,SKC,0.00,0.00,VWS V14.01,2013-02-05 03:30:00,
2013-02-04 20:36:00,27.2,19.4,30.24,NNE,31,0.0,2.0,72,0.00,,SKC,0.00,0.00,VWS V14.01,2013-02-05 03:36:00,
2013-02-04 20:42:00,27.1,19.3,30.24,NNE,31,0.0,2.0,72,0.00,,SKC,0.00,0.00,VWS V14.01,2013-02-05 03:42:00,
2013-02-04 20:45:00,27.0,18.9,30.24,NNE,31,0.0,2.0,71,0.00,,SKC,0.00,0.00,VWS V14.01,2013-02-05 03:45:00,
2013-02-04 20:48:00,27.0,19.2,30.23,NNE,30,0.0,0.0,72,0.00,,SKC,0.00,0.00,VWS V14.01,2013-02-05 03:48:00,
2013-02-04 20:54:00,26.7,18.9,30.24,NNE,31,2.0,2.0,72,0.00,,SKC,0.00,0.00,VWS V14.01,2013-02-05 03:54:00,
2013-02-04 21:00:00,26.6,18.8,30.24,NNE,31,0.0,2.0,72,0.00,,SKC,0.00,0.00,VWS V14.01,2013-02-05 04:00:00,
2013-02-04 21:06:00,26.4,18.6,30.15,NNE,31,0.0,1.0,72,0.00,,SKC,0.00,0.00,VWS V14.01,2013-02-05 04:06:00,
2013-02-04 21:12:00,26.2,18.4,30.16,NNE,31,0.0,1.0,72,0.00,,SKC,0.00,0.00,VWS V14.01,2013-02-05 04:12:00,
2013-02-04 21:15:00,25.8,18.0,30.16,NNE,30,0.0,3.0,72,0.00,,SKC,0.00,0.00,VWS V14.01,2013-02-05 04:15:00,
2013-02-04 21:18:00,25.7,17.9,30.16,NNE,31,1.0,2.0,72,0.00,,SKC,0.00,0.00,VWS V14.01,2013-02-05 04:18:00,
2013-02-04 21:24:00,25.3,17.9,30.18,NNE,30,0.0,2.0,73,0.00,,SKC,0.00,0.00,VWS V14.01,2013-02-05 04:24:00,
2013-02-04 21:30:00,25.1,17.7,30.18,NNE,31,0.0,2.0,73,0.00,,SKC,0.00,0.00,VWS V14.01,2013-02-05 04:30:00,
2013-02-04 21:36:00,24.8,17.4,30.18,NNE,31,0.0,0.0,73,0.00,,SKC,0.00,0.00,VWS V14.01,2013-02-05 04:36:00,
2013-02-04 21:42:00,24.5,17.1,30.18,NNE,30,0.0,0.0,73,0.00,,SKC,0.00,0.00,VWS V14.01,2013-02-05 04:42:00,
2013-02-04 21:45:00,24.3,17.2,30.17,NNE,31,0.0,0.0,74,0.00,,SKC,0.00,0.00,VWS V14.01,2013-02-05 04:45:00,
2013-02-04 21:48:00,24.2,17.1,30.17,SW,215,6.0,8.0,74,0.00,,SKC,0.00,0.00,VWS V14.01,2013-02-05 04:48:00,
2013-02-04 21:55:00,24.3,17.8,30.17,SSW,196,3.0,9.0,76,0.00,,SKC,0.00,0.00,VWS V14.01,2013-02-05 04:55:00,
2013-02-04 22:00:00,24.3,17.8,30.17,SSE,162,1.0,9.0,76,0.00,,SKC,0.00,0.00,VWS V14.01,2013-02-05 05:00:00,
2013-02-04 22:01:00,24.3,17.8,30.17,SSE,162,2.0,9.0,76,0.00,,SKC,0.00,0.00,VWS V14.01,2013-02-05 05:01:00,
2013-02-04 22:07:00,24.2,17.4,30.10,SSE,163,0.0,5.0,75,0.00,,SKC,0.00,0.00,VWS V14.01,2013-02-05 05:07:00,
2013-02-04 22:09:00,24.2,17.4,30.10,SSE,163,0.0,5.0,75,0.00,,SKC,0.00,0.00,VWS V14.01,2013-02-05 05:09:00,
2013-02-04 22:15:00,24.2,17.4,30.11,SSE,163,0.0,5.0,75,0.00,,SKC,0.00,0.00,VWS V14.01,2013-02-05 05:15:00,
2013-02-04 22:21:00,24.2,17.4,30.11,SSE,163,0.0,2.0,75,0.00,,SKC,0.00,0.00,VWS V14.01,2013-02-05 05:21:00,
2013-02-04 22:27:00,24.0,16.9,30.11,SSE,163,2.0,3.0,74,0.00,,SKC,0.00,0.00,VWS V14.01,2013-02-05 05:27:00,
2013-02-04 22:30:00,24.0,16.9,30.11,SSE,163,0.0,4.0,74,0.00,,SKC,0.00,0.00,VWS V14.01,2013-02-05 05:30:00,
2013-02-04 22:34:00,24.0,16.9,30.11,SSE,163,0.0,1.0,74,0.00,,SKC,0.00,0.00,VWS V14.01,2013-02-05 05:34:00,
2013-02-04 22:40:00,23.9,16.8,30.11,SSE,163,0.0,1.0,74,0.00,,SKC,0.00,0.00,VWS V14.01,2013-02-05 05:40:00,
2013-02-04 22:45:00,23.9,16.8,30.11,SSE,163,0.0,1.0,74,0.00,,SKC,0.00,0.00,VWS V14.01,2013-02-05 05:45:00,
2013-02-04 22:52:00,23.7,16.3,30.11,SSE,163,0.0,2.0,73,0.00,,SKC,0.00,0.00,VWS V14.01,2013-02-05 05:52:00,
2013-02-04 22:58:00,23.5,16.5,30.11,SSE,163,2.0,2.0,74,0.00,,SKC,0.00,0.00,VWS V14.01,2013-02-05 05:58:00,
2013-02-04 23:00:00,23.4,16.4,30.11,SSE,163,0.0,3.0,74,0.00,,SKC,0.00,0.00,VWS V14.01,2013-02-05 06:00:00,
2013-02-04 23:04:00,23.3,15.9,30.10,SSE,163,0.0,3.0,73,0.00,,SKC,0.00,0.00,VWS V14.01,2013-02-05 06:04:00,
2013-02-04 23:10:00,23.1,16.1,30.09,SSE,163,3.0,3.0,74,0.00,,SKC,0.00,0.00,VWS V14.01,2013-02-05 06:10:00,
2013-02-04 23:15:00,23.3,16.2,30.09,WSW,249,2.0,5.0,74,0.00,,SKC,0.00,0.00,VWS V14.01,2013-02-05 06:15:00,
2013-02-04 23:17:00,23.3,16.2,30.10,WSW,250,2.0,4.0,74,0.00,,SKC,0.00,0.00,VWS V14.01,2013-02-05 06:17:00,
2013-02-04 23:23:00,23.5,16.5,30.10,WSW,250,1.0,4.0,74,0.00,,SKC,0.00,0.00,VWS V14.01,2013-02-05 06:23:00,
2013-02-04 23:29:00,23.4,16.0,30.10,WSW,250,0.0,4.0,73,0.00,,SKC,0.00,0.00,VWS V14.01,2013-02-05 06:29:00,
2013-02-04 23:30:00,23.3,15.9,30.10,WSW,250,2.0,4.0,73,0.00,,SKC,0.00,0.00,VWS V14.01,2013-02-05 06:30:00,
2013-02-04 23:35:00,23.2,15.8,30.10,WSW,249,0.0,2.0,73,0.00,,SKC,0.00,0.00,VWS V14.01,2013-02-05 06:35:00,
2013-02-04 23:41:00,23.0,15.6,30.11,WSW,249,1.0,2.0,73,0.00,,SKC,0.00,0.00,VWS V14.01,2013-02-05 06:41:00,
2013-02-04 23:45:00,22.7,15.4,30.11,WSW,250,0.0,2.0,73,0.00,,SKC,0.00,0.00,VWS V14.01,2013-02-05 06:45:00,
2013-02-04 23:47:00,22.6,15.3,30.11,WSW,250,0.0,0.0,73,0.00,,SKC,0.00,0.00,VWS V14.01,2013-02-05 06:47:00,
2013-02-04 23:53:00,22.3,15.3,30.13,WSW,250,0.0,0.0,74,0.00,,SKC,0.00,0.00,VWS V14.01,2013-02-05 06:53:00,
2013-02-04 23:59:00,21.9,14.9,30.13,WSW,250,0.0,0.0,74,0.00,,SKC,0.00,0.00,VWS V14.01,2013-02-05 06:59:00,